Regional Weather Roundup
Issued by NWS

Home | Current Version | Previous Version | Text Only | Print | Product List | Glossary Off
Versions: 1 2 3 4 5 6 7 8 9 10 11 12 13 14 15 16 17 18 19 20 21 22 23 24 25 26 27 28 29 30 31 32 33 34 35 36 37 38 39 40 41 42 43 44 45 46 47 48 49 50

000
ASUS43 KBIS 200920
RWRND

NORTH DAKOTA REGIONAL WEATHER ROUNDUP
NATIONAL WEATHER SERVICE BISMARCK ND
400 AM CDT WED AUG 20 2014

NOTE: "FAIR" INDICATES FEW OR NO CLOUDS BELOW 12,000 FEET WITH NO
SIGNIFICANT WEATHER AND/OR OBSTRUCTIONS TO VISIBILITY.


NDZ001>003-009>011-017-201000-
NORTHWEST NORTH DAKOTA

CITY           SKY/WX    TMP DP  RH WIND       PRES   REMARKS
WILLISTON      MOCLDY    67  60  78 CALM      29.63S
MINOT          PTCLDY    65  60  84 SE8       29.67F
MINOT AFB      PTCLDY    63  62  99 SE8       29.66F
$$

NDZ018>021-031>035-040>046-201000-
SOUTHWEST NORTH DAKOTA

CITY           SKY/WX    TMP DP  RH WIND       PRES   REMARKS
BISMARCK       CLEAR     67  62  84 SE8       29.70F
DICKINSON      CLEAR     63  57  81 S8        29.66F
GARRISON         N/A     67  62  84 SE7       29.69S
HETTINGER ARPT PTCLDY    67  60  78 SE7       29.70F
$$

NDZ004>008-012>016-024-026-027-054-201000-
NORTHEAST NORTH DAKOTA

CITY           SKY/WX    TMP DP  RH WIND       PRES   REMARKS
GRAND FORKS    CLEAR     63  61  93 SE6       29.76S
GRND FRKS AFB  CLEAR     65  65  99 E3        29.76F
DEVILS LAKE    CLEAR     66  63  88 SE8       29.74R
$$

NDZ022-023-025-028>030-036>039-047>053-201000-
SOUTHEAST NORTH DAKOTA

CITY           SKY/WX    TMP DP  RH WIND       PRES   REMARKS
FARGO          CLEAR     66  61  84 SE6       29.77R
JAMESTOWN      MOCLDY    66  63  90 S6        29.76R
$$



USA.gov is the U.S. government's official web portal to all federal, state and local government web resources and services.